Вернуться в каталог

STARLINK-35449

АктивенСвязьVLEO
NORAD 66459·PAYLOAD·🇺🇸 United States

Запущен Nov 15, 2025 с Cape Canaveral Space Force Station

Loading…

Ближайшие Пролёты (ближайшие 24 часа)

TLE

СвежийSource: CelesTrak SupGP

Эпоха: Sep 15, 2026, 02:56 UTC

1 66459C 25262D   26258.12270833  .00027227  00000+0  98610-3 0  2580
2 66459  43.0007 306.4751 0001159 264.4152 193.6431 15.27567725    17

Отслеживайте STARLINK-35449 в реальном времени с AllMySat

Download on the App Store